[[{"header":{"parameterUnit":"m.s-1","parameterCategory":1,"la1":30.2991,"la2":30.254,"lo1":-89.0895,"lo2":-89.0444,"dy":0.0017,"dx":0.0017,"nx":28,"ny":28,"refTime":"2025-06-19T21:00:00:Z","depth":0,"parameterNumber":2,"parameterNumberName":"U-component_of_WINDS"},"data":[0,0,0,0,0,0,0,0,0,0,0,0,0,0,0,0,0,0,0,0,0,0,0,0,0,0,0,0,0,0,0,0,0,0,0,0,0,0,0,0,0,0,0,0,0,0,0,0,0,0,0,0,0,0,0,0,0,0,2.0399,2.0399,0,2.0461,2.0462,2.0463,2.0405,2.0403,2.04,2.0398,2.0467,2.0471,2.0475,0,0,0,0,0,0,0,0,0,0,0,0,0,2.0231,2.0235,2.0399,2.0399,2.04,2.0461,2.0462,2.0463,2.0405,2.0402,2.04,2.0397,2.0465,2.047,2.0475,0,0,0,0,0,0,0,0,0,0,0,0,0,2.03,2.0236,2.0398,2.0379,2.0377,2.0461,2.0462,2.0463,2.0406,2.0402,2.0399,2.0396,2.0464,2.047,2.0476,2.0583,0,0,2.0494,2.0497,0,0,0,0,0,0,0,0,2.0296,2.0307,2.0381,2.038,2.0379,2.0422,2.0428,2.0504,2.0407,2.0395,2.0398,2.0394,2.0455,2.0461,2.0481,2.0587,2.059,2.0495,2.0498,2.0501,2.0503,0,0,0,0,0,0,0,2.0292,2.0304,2.0424,2.0382,2.0381,2.0368,2.0373,2.0442,2.0444,2.0396,2.0392,2.04,2.0454,2.0475,2.0482,2.0591,2.0494,2.05,2.0503,2.0506,2.0786,2.079,0,0,0,0,0,0,2.0289,2.03,2.0422,2.0425,2.0328,2.0373,2.038,2.0412,2.0443,2.0445,2.0403,2.0397,2.0467,2.0475,2.0484,2.0611,2.0501,2.0506,2.051,2.0782,2.0787,2.0791,0,0,0,0,0,0,2.0285,2.03,2.0419,2.0362,2.0376,2.038,2.0416,2.0415,2.0436,2.0448,2.0449,2.0424,2.0464,2.0476,2.0558,2.0612,2.0509,2.0515,2.0778,2.0784,2.0789,2.0865,0,0,0,0,0,0,2.0281,2.0299,2.0339,2.0363,2.0379,2.0491,2.0419,2.0418,2.0446,2.0439,2.0469,2.047,2.0462,2.055,2.0565,2.0619,2.0519,2.0773,2.078,2.0787,2.0858,2.0873,2.0886,0,0,0,0,0,2.0275,2.036,2.0342,2.0357,2.0429,2.0494,2.0504,2.0492,2.0451,2.0491,2.0499,2.0469,2.0605,2.0559,2.0575,2.0632,2.0769,2.0778,2.0787,2.0852,2.087,2.0886,0,0,0,0,0,0,2.0344,2.0362,2.0343,2.0437,2.0465,2.0484,2.0535,2.0512,2.0552,2.0544,2.0529,2.0536,2.0623,2.0636,2.0585,2.0737,2.0681,2.0693,2.0725,2.0742,2.0756,2.075,2.0524,0,0,0,0,0,2.037,2.042,2.0434,2.0517,2.0531,2.0531,2.0559,2.0547,2.0576,2.0587,2.0601,2.0631,2.0679,2.0712,2.0758,2.0861,2.0865,2.0908,2.0922,2.0933,2.0943,2.0996,2.1015,2.0819,2.0819,2.0819,0,0,2.0425,2.0441,2.0474,2.0531,2.055,2.0603,2.0541,2.06,2.0639,2.0597,2.0674,2.0686,2.0718,2.081,2.0852,2.0824,2.0998,2.0944,2.0953,2.0957,2.1007,2.1026,2.1042,2.0825,2.0824,2.0823,0,0,2.055,2.0568,2.0638,2.0658,2.0688,2.0688,2.0705,2.0728,2.0733,2.0811,2.0779,2.0827,2.0912,2.0935,2.0958,2.1093,2.1066,2.1109,2.118,2.1232,2.1248,2.1261,2.1307,2.1324,2.1119,2.1119,2.1119,0,2.0614,2.0691,2.0677,2.0737,2.0763,2.0726,2.0796,2.0817,2.0862,2.088,2.0849,2.0953,2.0972,2.1068,2.1101,2.1122,2.114,2.1104,2.1247,2.126,2.1272,2.1316,2.1333,2.1124,2.1123,2.1123,2.1122,0,2.0768,2.0822,2.0875,2.0916,2.0948,2.1014,2.1009,2.1044,2.103,2.1033,2.1112,2.1134,2.1182,2.1205,2.1193,2.1299,2.1281,2.1249,2.1191,2.1296,2.1336,2.1353,2.1131,2.1129,2.1128,2.1126,0,0,2.0937,2.0969,2.0988,2.1006,2.1037,2.1079,2.1143,2.1189,2.1218,2.125,2.1302,2.1375,2.1345,2.1371,2.1361,2.1408,2.151,2.1369,2.137,2.1392,2.1626,2.1648,2.1668,2.1493,2.1496,2.1499,2.1623,0,2.1061,2.117,2.1159,2.1263,2.1312,2.1278,2.1333,2.1358,2.1363,2.1407,2.1413,2.1463,2.142,2.1435,2.148,2.1488,2.1556,2.1479,2.1541,2.1543,2.1531,2.1689,2.1713,2.1829,2.1639,2.1641,2.1643,0,2.122,2.1256,2.1365,2.1386,2.1407,2.1456,2.1497,2.1539,2.1567,2.1567,2.1596,2.1579,2.1643,2.1586,2.1674,2.1622,2.1647,2.1655,2.1659,2.1662,2.1598,2.1694,2.1866,2.1882,2.1669,2.1667,2.1665,0,2.1329,2.1405,2.1479,2.1496,2.1524,2.156,2.1573,2.1598,2.1626,2.1662,2.168,2.1724,2.1748,2.1783,2.1777,2.1737,2.1867,2.181,2.1868,2.1868,2.1895,2.1893,2.207,2.1916,2.1916,2.1915,2.1915,0,2.1468,2.1535,2.1528,2.1574,2.1648,2.1635,2.1709,2.1719,2.1741,2.1787,2.1762,2.1807,2.1798,2.1843,2.184,2.1912,2.1924,2.1925,2.1923,2.1926,2.1925,2.194,2.1931,2.192,2.1919,2.1918,2.1917,0,2.1601,2.1599,2.1677,2.1697,2.1704,2.1758,2.1775,2.1818,2.1821,2.188,2.1894,2.1899,2.195,2.1948,2.2008,2.2005,2.2093,2.2083,2.2083,2.208,2.2137,2.213,2.2327,2.2352,2.2185,2.2186,2.2188,0,2.1688,2.1738,2.1763,2.1792,2.1807,2.1855,2.1883,2.1873,2.1903,2.1939,2.1977,2.2026,2.2064,2.2147,2.2157,2.2201,2.2191,2.2257,2.2197,2.2198,2.2188,2.2184,2.2188,2.2267,2.2269,2.2271,2.2272,0,2.1841,2.1838,2.1878,2.1919,2.1953,2.1985,2.2014,2.204,2.2033,2.2069,2.212,2.2149,2.2208,2.2257,2.2299,2.2314,2.2292,2.2291,2.2306,2.2308,2.2305,2.2304,2.2111,2.2286,2.2285,2.2284,2.2283,2.2282,2.1952,2.1994,2.2018,2.2064,2.2085,2.2113,2.2153,2.2161,2.2203,2.2249,2.2242,2.2299,2.2325,2.238,2.2399,2.2443,2.242,2.2443,2.2448,2.2453,2.2458,2.23,2.2452,2.2451,2.2451,2.2451,2.245,0,2.2101,2.2115,2.2158,2.2198,2.2235,2.2211,2.2242,2.2274,2.2324,2.235,2.2387,2.2446,2.2492,2.2505,2.255,2.2583,2.2574,2.2595,2.2591,2.2594,2.2478,2.2459,2.2602,2.2602,2.2602,2.2602,2.2602,2.2601,2.2183,2.2253,2.2252,2.2332,2.2346,2.24,2.242,2.2445,2.2466,2.2532,2.257,2.2578,2.2598,2.2644,2.2686,2.2689,2.2705,2.273,2.2728,2.2618,2.2603,2.2588,2.257,2.2734,2.2734,2.2841,2.2842,2.2842]},{"header":{"parameterUnit":"m.s-1","parameterCategory":1,"la1":30.2991,"la2":30.254,"lo1":-89.0895,"lo2":-89.0444,"dy":0.0017,"dx":0.0017,"nx":28,"ny":28,"refTime":"2025-06-19T21:00:00:Z","depth":0,"parameterNumber":3,"parameterNumberName":"V-component_of_WINDS"},"data":[0,0,0,0,0,0,0,0,0,0,0,0,0,0,0,0,0,0,0,0,0,0,0,0,0,0,0,0,0,0,0,0,0,0,0,0,0,0,0,0,0,0,0,0,0,0,0,0,0,0,0,0,0,0,0,0,0,0,3.8803,3.8803,0,3.878,3.878,3.878,3.8757,3.8756,3.8756,3.8756,3.873,3.8729,3.8729,0,0,0,0,0,0,0,0,0,0,0,0,0,3.8822,3.8821,3.8803,3.8803,3.8802,3.878,3.878,3.878,3.8757,3.8756,3.8756,3.8756,3.873,3.8729,3.8729,0,0,0,0,0,0,0,0,0,0,0,0,0,3.8808,3.8821,3.8803,3.8788,3.8787,3.878,3.878,3.878,3.8757,3.8756,3.8756,3.8755,3.873,3.8729,3.8729,3.8734,0,0,3.8727,3.8727,0,0,0,0,0,0,0,0,3.8808,3.8807,3.8791,3.8789,3.8788,3.8771,3.8777,3.8764,3.8757,3.8768,3.8756,3.8755,3.8744,3.8742,3.8739,3.8733,3.8732,3.8727,3.8726,3.8726,3.8726,0,0,0,0,0,0,0,3.8809,3.8808,3.8794,3.8791,3.8789,3.8781,3.8779,3.8775,3.8759,3.8767,3.8765,3.8763,3.8743,3.8739,3.8738,3.8732,3.8727,3.8726,3.8726,3.8726,3.8726,3.8726,0,0,0,0,0,0,3.8813,3.8809,3.8795,3.8793,3.8797,3.8781,3.8779,3.8777,3.8759,3.8755,3.8764,3.8762,3.874,3.8738,3.8737,3.874,3.8726,3.8726,3.8725,3.8725,3.8726,3.8726,0,0,0,0,0,0,3.8814,3.8812,3.8796,3.8801,3.8798,3.8782,3.878,3.8776,3.8773,3.8756,3.8753,3.8763,3.874,3.8738,3.8734,3.8739,3.8725,3.8725,3.8725,3.8725,3.8726,3.8747,0,0,0,0,0,0,3.8814,3.8813,3.8816,3.8801,3.8798,3.8795,3.878,3.8776,3.8772,3.877,3.8755,3.8752,3.8739,3.8735,3.8734,3.8737,3.8724,3.8724,3.8725,3.8726,3.8746,3.8749,3.8751,0,0,0,0,0,3.8815,3.8823,3.8816,3.8815,3.8802,3.8796,3.8794,3.878,3.8773,3.8775,3.8763,3.8752,3.8738,3.8735,3.8733,3.8737,3.8724,3.8725,3.8726,3.8745,3.8748,3.875,0,0,0,0,0,0,3.8838,3.8821,3.8813,3.8816,3.8808,3.8792,3.8794,3.8784,3.8777,3.8775,3.8758,3.8754,3.8752,3.8744,3.8741,3.8739,3.8729,3.873,3.8745,3.8748,3.875,3.8751,3.8724,0,0,0,0,0,3.8844,3.8842,3.8826,3.883,3.8826,3.8811,3.8808,3.8798,3.8788,3.8784,3.8773,3.8762,3.8755,3.8751,3.8744,3.8745,3.8739,3.8746,3.8748,3.875,3.875,3.8747,3.8749,3.8729,3.8729,3.8729,0,0,3.8855,3.8845,3.8845,3.8835,3.8827,3.8823,3.8808,3.8806,3.8802,3.8783,3.878,3.877,3.8757,3.8756,3.8754,3.8749,3.8755,3.8751,3.8753,3.8752,3.8748,3.875,3.8752,3.8729,3.8729,3.8729,0,0,3.8874,3.8867,3.8869,3.8861,3.8849,3.8839,3.8839,3.8824,3.8817,3.8813,3.8798,3.8793,3.8782,3.8772,3.8766,3.8778,3.8767,3.8776,3.8788,3.8785,3.8786,3.8788,3.879,3.8791,3.8777,3.8777,3.8777,0,3.8889,3.8885,3.8871,3.8869,3.8863,3.8846,3.8846,3.8839,3.8825,3.8821,3.8815,3.8799,3.879,3.8784,3.8787,3.8783,3.8781,3.8778,3.8788,3.8789,3.879,3.8792,3.8793,3.8778,3.8778,3.8778,3.8778,0,3.8903,3.89,3.8902,3.8889,3.8884,3.8883,3.8867,3.8864,3.8854,3.8843,3.8837,3.8824,3.8813,3.8811,3.8802,3.8803,3.88,3.8791,3.8781,3.8793,3.8794,3.8795,3.878,3.8779,3.8779,3.8779,0,0,3.8936,3.8915,3.8916,3.8908,3.8893,3.889,3.8886,3.8876,3.8872,3.8862,3.8858,3.8848,3.8839,3.8832,3.882,3.8818,3.8825,3.8809,3.8808,3.8811,3.8824,3.883,3.8831,3.8818,3.8818,3.8818,3.8824,0,3.8951,3.8946,3.8932,3.8931,3.8926,3.8909,3.8905,3.8895,3.8884,3.8877,3.8864,3.8857,3.8847,3.8842,3.8839,3.8825,3.8828,3.8825,3.8811,3.8811,3.8815,3.8832,3.8839,3.8846,3.8825,3.8825,3.8825,0,3.8968,3.8959,3.8958,3.894,3.8938,3.8936,3.8923,3.8918,3.8904,3.8896,3.8887,3.8874,3.8867,3.8858,3.8847,3.8846,3.8839,3.8831,3.8831,3.8829,3.8819,3.8829,3.8848,3.8849,3.8826,3.8826,3.8826,0,3.899,3.8978,3.8975,3.8969,3.895,3.8948,3.894,3.8926,3.8919,3.8908,3.8903,3.8891,3.8884,3.8874,3.8857,3.8853,3.8848,3.8837,3.8839,3.8839,3.8839,3.8839,3.8856,3.8836,3.8836,3.8836,3.8836,0,3.9007,3.9006,3.8984,3.8982,3.898,3.8963,3.896,3.895,3.8937,3.8931,3.8915,3.8909,3.8888,3.8879,3.8865,3.8857,3.8854,3.8846,3.8843,3.8847,3.8848,3.8843,3.8841,3.8836,3.8836,3.8836,3.8836,0,3.9032,3.9017,3.9012,3.8993,3.8989,3.8987,3.897,3.8967,3.8954,3.8947,3.8944,3.8924,3.8913,3.8895,3.8878,3.8869,3.8862,3.8857,3.8867,3.8865,3.8867,3.8867,3.888,3.888,3.8862,3.8862,3.8862,0,3.9043,3.9042,3.9023,3.9018,3.901,3.9003,3.8996,3.8979,3.8972,3.8955,3.8952,3.894,3.8929,3.8911,3.8894,3.888,3.8873,3.8879,3.8871,3.8875,3.8872,3.8872,3.887,3.8881,3.8881,3.8881,3.8881,0,3.9064,3.9056,3.9048,3.9037,3.903,3.902,3.9009,3.9005,3.8985,3.8978,3.8966,3.8957,3.894,3.8926,3.891,3.8899,3.8886,3.8884,3.8883,3.8888,3.8893,3.8889,3.8871,3.8884,3.8884,3.8883,3.8883,3.8883,3.9081,3.9078,3.9064,3.9055,3.9045,3.9034,3.9029,3.9016,3.9007,3.8992,3.8981,3.897,3.8953,3.893,3.8919,3.8909,3.8903,3.8903,3.8902,3.8902,3.8903,3.8896,3.8906,3.8905,3.8905,3.8905,3.8905,0,3.91,3.9089,3.9081,3.9066,3.9058,3.9048,3.9035,3.9028,3.9019,3.9005,3.8994,3.8979,3.8966,3.8948,3.8932,3.8927,3.892,3.8923,3.8923,3.892,3.891,3.8911,3.8929,3.8929,3.8929,3.8929,3.8929,3.8929,3.9108,3.9103,3.9093,3.9081,3.9071,3.906,3.9053,3.9043,3.9031,3.9016,3.9005,3.8994,3.8977,3.896,3.8947,3.8941,3.8936,3.894,3.8933,3.8923,3.8921,3.8919,3.8921,3.894,3.894,3.8944,3.8944,3.8944]}]]